Satellite: AEROCUB3
Catalog number: 35005
Epoch time:      10132.92341626
Element set:    0310
Inclination:      040.4745 deg
RA of node:       058.0980 deg
Eccentricity:    0.0016449
Arg of perigee:   134.9228 deg
Mean anomaly:     225.2824 deg
Mean motion:   15.49572420 rev/day
Decay rate:     3.2082e-04 rev/day^2
Epoch rev:           05527
Checksum:              272

Satellite: DRAGNSAT
Catalog number: 35690
Epoch time:      10076.22711312
Element set:     316
Inclination:      051.6170 deg
RA of node:       315.4586 deg
Eccentricity:    0.0004999
Arg of perigee:   310.9891 deg
Mean anomaly:     057.3269 deg
Mean motion:   16.42150010 rev/day
Decay rate:   5.715194e-02 rev/day^2
Epoch rev:            3656
Checksum:              289

Satellite: POLLUX
Catalog number: 35693
Epoch time:      10087.99866888
Element set:     352
Inclination:      051.6099 deg
RA of node:       254.5746 deg
Eccentricity:    0.0006270
Arg of perigee:   294.4866 deg
Mean anomaly:     097.5899 deg
Mean motion:   16.52338462 rev/day
Decay rate:  2.3496735e-01 rev/day^2
Epoch rev:            3839
Checksum:              384

Satellite: CASTOR
Catalog number: 35694
Epoch time:      10133.79239933
Element set:     371
Inclination:      051.6373 deg
RA of node:       023.6464 deg
Eccentricity:    0.0003780
Arg of perigee:   097.4785 deg
Mean anomaly:     262.6653 deg
Mean motion:   15.97564634 rev/day
Decay rate:     6.3345e-04 rev/day^2
Epoch rev:            4555
Checksum:              326

Satellite: METEOR-M
Catalog number: 35865
Epoch time:      10133.65216639
Element set:     290
Inclination:      098.7600 deg
RA of node:       187.6922 deg
Eccentricity:    0.0003357
Arg of perigee:   098.2506 deg
Mean anomaly:     261.9018 deg
Mean motion:   14.21830099 rev/day
Decay rate:       1.76e-06 rev/day^2
Epoch rev:            3381
Checksum:              300

Satellite: RS-38
Catalog number: 35869
Epoch time:      10133.76808857
Element set:     296
Inclination:      098.7601 deg
RA of node:       187.8375 deg
Eccentricity:    0.0005419
Arg of perigee:   099.9653 deg
Mean anomaly:     260.2095 deg
Mean motion:   14.21981425 rev/day
Decay rate:       1.77e-06 rev/day^2
Epoch rev:            3383
Checksum:              349

/EX


_______________________________________________
Via the Keps mailing list courtesy of AMSAT-NA
http://amsat.org/mailman/listinfo/keps

--- ViaMAIL!/WC v1.60d
 * Origin: Chowdanet (401-724-4410) telnet://chowdanet.com  (1:323/120)